Wind_Speed
21 21 21 23 24 25 26 27 28 29 29 29 28 28 27 26 25 24 23 22 21 20 19 18 16 15 13 12 11 11 11 12 13 13 14 13 13 12 11 11 10 9 8 5 4 5 6 6 6 6 4 4 3 3 3 2 3 4 5 6 8 9 8 6 5 5 5 5 6 9 13 16 18 18 17 16 15 14 14 13 12 12 11 11 10 9
20 21 22 24 25 26 27 28 28 29 29 29 29 29 28 27 26 26 24 23 22 20 19 17 15 14 12 12 11 11 11 12 13 13 13 12 11 10 10 9 8 7 6 6 7 7 8 7 6 5 4 3 3 3 3 3 4 5 6 6 6 7 6 4 4 4 5 5 5 4 4 8 11 14 15 15 14 14 13 12 12 11 10 9 9 8
19 21 23 25 26 27 28 28 29 29 29 29 29 28 27 27 26 25 24 23 22 20 18 16 14 13 12 11 10 10 11 11 11 11 11 10 10 9 8 8 7 7 8 8 9 10 10 8 6 5 4 4 3 3 4 4 5 6 7 7 6 3 2 0 2 3 4 5 5 4 2 2 3 6 9 11 12 12 11 11 10 9 8 7 7 6
20 21 24 26 27 27 27 28 29 28 27 27 26 26 25 25 24 24 23 22 21 19 17 15 14 12 10 10 9 9 9 9 9 9 9 9 9 8 8 8 8 9 10 10 10 10 10 8 6 5 5 4 4 4 5 5 6 6 6 6 6 4 3 2 1 2 3 4 5 6 4 2 1 1 3 5 7 8 8 8 8 7 6 6 6 6
17 19 23 25 25 24 26 28 29 28 26 25 24 23 22 22 22 21 21 20 19 17 16 14 12 10 9 8 8 8 8 8 8 9 9 9 9 8 8 8 9 10 12 12 11 10 10 9 7 6 5 5 4 5 6 6 6 6 5 4 4 3 2 1 1 3 4 5 6 6 5 4 3 2 2 2 3 4 5 6 5 5 6 6 6 6
16 18 21 23 22 21 24 26 27 27 26 25 23 22 21 20 20 19 18 17 16 15 14 12 11 9 8 8 7 7 7 8 8 9 9 9 9 9 9 9 10 12 14 13 11 11 11 9 8 7 6 5 5 6 7 7 7 6 5 4 3 2 2 1 2 4 5 6 6 6 5 5 4 4 3 3 3 4 4 4 4 4 6 6 7 7
16 19 21 23 22 21 23 25 26 25 25 24 23 22 20 19 18 17 16 15 14 13 12 11 10 9 8 7 7 7 8 9 9 9 9 9 8 8 9 9 11 13 15 14 12 11 11 10 8 7 6 6 6 7 8 8 7 6 5 4 3 2 2 2 3 5 6 6 5 5 5 4 3 3 3 4 4 4 4 4 3 3 6 7 7 7
16 19 21 23 22 21 23 25 25 24 24 24 23 22 20 18 17 15 14 14 13 12 11 10 9 8 8 7 8 9 10 10 10 10 9 8 8 8 9 9 11 13 16 16 14 12 12 10 9 8 7 7 7 8 8 8 7 6 5 4 3 2 1 1 3 5 5 5 4 4 4 3 2 2 3 4 3 3 4 4 3 2 3 5 6 5
17 19 22 24 22 20 22 25 25 24 23 23 23 22 20 19 17 15 14 13 12 11 10 10 9 9 8 8 10 11 12 12 11 10 9 8 8 8 9 10 11 13 15 17 15 13 12 11 10 9 8 8 8 8 8 8 7 6 5 4 3 2 1 1 3 5 6 6 5 5 4 3 2 2 3 4 3 2 2 3 3 2 2 3 3 3
19 21 24 25 25 23 23 24 25 24 23 22 22 22 21 20 18 16 14 13 12 11 10 10 9 9 9 10 11 12 13 12 11 11 9 8 8 8 9 10 11 12 14 16 16 14 13 12 11 10 10 9 9 9 8 7 7 6 5 4 3 2 1 1 3 5 6 6 6 5 3 2 1 1 2 3 3 2 1 3 4 4 3 3 3 3
19 22 24 25 25 25 25 26 26 25 23 22 21 21 20 20 19 17 15 14 13 12 11 10 10 10 10 11 12 12 13 12 12 11 10 9 9 9 9 10 11 12 13 15 16 15 14 14 13 12 11 10 10 10 9 8 7 6 5 4 4 3 2 1 3 4 5 6 5 4 3 2 1 1 2 3 2 1 1 3 4 5 5 5 4 4
18 20 22 24 24 23 24 26 27 26 23 21 19 17 18 19 18 17 15 15 14 14 13 12 12 11 11 11 12 12 12 12 11 11 10 9 9 9 10 11 12 12 13 14 15 16 15 16 15 14 12 11 11 10 10 9 7 6 5 5 4 3 2 2 3 4 5 5 5 4 3 2 1 1 1 2 2 2 2 3 4 5 5 5 5 5
19 19 20 22 22 22 22 23 23 23 23 21 18 16 17 18 18 16 15 15 15 15 15 14 13 13 13 12 12 12 12 12 12 11 10 9 9 10 11 12 13 13 13 13 14 14 16 17 17 15 13 12 11 11 10 9 8 7 6 5 5 4 3 3 4 5 6 5 5 4 3 3 2 1 1 2 2 2 3 4 5 5 6 6 6 7
19 19 19 18 19 20 21 22 22 21 22 23 22 21 21 20 18 15 14 14 14 14 14 14 14 14 13 13 12 12 12 12 12 11 10 9 9 10 11 13 14 14 14 14 14 15 17 19 18 16 14 13 12 11 10 9 8 8 7 6 6 5 5 5 5 5 6 5 5 4 4 4 4 4 3 3 3 4 4 5 6 7 8 8 9 10
19 19 17 16 16 18 21 23 24 23 23 25 24 23 22 20 18 16 15 15 15 15 14 14 14 14 13 13 13 13 12 12 12 11 10 9 9 10 12 13 14 15 14 15 16 17 19 20 19 17 15 14 12 11 10 10 9 8 8 7 7 6 6 6 5 5 5 5 5 5 5 5 5 5 5 5 6 6 7 8 8 9 10 10 11 11
20 19 18 17 18 20 23 25 26 25 25 25 25 23 21 21 20 19 18 18 18 16 15 13 11 10 11 13 14 13 12 11 11 11 10 10 9 10 11 13 14 15 15 16 18 20 21 21 19 17 15 14 12 11 11 10 10 9 9 8 7 7 6 6 6 6 5 5 5 5 5 5 5 6 6 6 7 7 8 9 9 10 10 11 11 11
19 19 19 18 19 20 25 28 28 27 26 26 25 24 23 23 22 22 21 20 20 18 16 13 8 5 5 8 12 13 13 12 11 11 10 10 10 9 10 12 14 15 16 17 19 20 21 20 18 16 14 13 12 11 11 11 11 10 10 9 8 7 6 6 6 6 6 5 5 5 4 4 4 5 5 6 6 7 8 8 9 9 9 10 10 10
19 19 19 18 19 21 25 27 28 27 27 27 26 25 23 23 23 22 22 22 20 19 17 15 10 6 5 5 9 13 14 13 12 12 11 11 10 10 10 12 15 17 18 19 20 20 21 19 17 15 14 13 12 11 11 11 11 11 10 9 8 7 7 6 6 6 5 5 4 3 3 3 3 3 3 4 5 5 6 6 7 7 7 7 7 7
20 21 21 19 20 22 25 27 28 28 28 28 27 25 23 22 22 22 22 21 21 20 18 14 12 9 6 6 10 14 14 13 13 13 13 12 11 11 10 12 15 18 20 20 21 20 20 18 16 14 13 12 12 11 11 11 11 11 10 10 8 7 6 6 5 5 4 3 3 2 2 1 1 2 2 2 3 3 3 4 4 4 5 5 5 5
22 24 24 23 22 23 25 28 31 32 31 30 28 26 23 22 22 21 21 21 21 20 20 17 13 10 9 10 12 14 15 14 14 14 14 13 12 11 11 13 16 19 21 21 21 20 19 17 15 14 13 12 11 11 11 11 11 10 10 9 8 7 6 5 4 4 3 3 2 2 1 1 2 2 2 2 2 3 3 3 3 3 4 4 5 5
25 26 29 30 27 25 25 29 33 34 33 31 28 26 24 23 21 21 21 20 20 19 19 16 14 12 11 13 14 14 15 14 14 13 11 11 11 12 12 13 15 18 20 20 20 19 18 17 16 15 14 12 11 11 11 11 11 10 9 8 7 7 6 5 4 4 3 3 2 2 2 3 3 3 3 4 4 4 4 4 4 5 5 5 5 6
28 29 32 33 32 30 31 33 34 34 32 29 27 26 24 23 22 22 22 21 20 18 17 15 13 13 13 14 14 15 15 14 13 10 8 8 9 12 12 12 14 16 17 17 18 17 17 17 16 16 15 14 12 11 10 10 9 9 8 7 7 6 6 5 5 4 4 3 4 4 4 5 5 5 6 6 6 6 6 6 6 6 7 7 7 7
32 32 33 33 33 33 33 34 35 33 30 27 26 26 25 24 24 24 23 22 20 19 18 16 15 14 13 13 13 14 14 13 12 11 8 6 8 11 13 13 14 15 16 16 16 16 15 15 15 15 15 14 14 13 11 10 8 8 8 7 7 6 6 6 5 5 5 5 5 5 6 6 7 7 7 8 8 8 8 8 8 8 9 9 9 9
32 32 33 33 33 32 32 32 32 31 28 26 24 23 22 22 22 22 22 22 21 20 18 17 15 13 12 12 12 12 12 12 11 9 6 5 8 12 13 13 14 15 15 15 15 15 15 15 14 14 14 14 14 14 13 12 10 10 9 8 8 8 7 7 7 6 6 6 6 6 6 7 7 8 9 9 10 10 10 10 10 10 10 10 10 10
30 31 32 32 31 29 27 28 28 28 26 25 23 22 21 20 20 19 19 19 19 19 18 16 14 12 11 11 11 11 11 12 11 9 6 5 9 13 13 13 13 14 14 14 14 14 15 15 14 13 13 13 13 13 12 12 11 11 10 10 9 9 9 9 9 9 9 8 8 8 8 8 8 9 9 10 11 11 12 12 12 12 12 12 12 11
26 27 28 28 26 24 22 22 24 24 24 24 23 22 22 21 20 19 19 19 19 19 18 15 12 11 11 10 10 11 11 11 11 10 8 7 10 13 13 13 13 13 14 13 13 14 14 14 14 14 13 13 12 12 12 11 11 11 11 11 11 11 11 11 11 11 11 10 10 10 10 11 11 11 11 11 11 12 12 13 13 13 13 13 13 13
21 22 23 23 22 20 19 20 21 23 23 23 22 22 22 22 22 20 20 20 21 21 18 12 9 8 9 8 9 10 11 11 10 10 9 10 11 11 13 13 13 13 13 12 12 12 13 13 14 14 13 13 13 12 12 11 11 11 11 11 12 12 12 12 12 12 12 13 13 13 13 13 13 13 13 13 13 13 13 13 13 14 14 14 15 15
20 21 21 21 20 19 19 20 21 22 22 22 21 21 22 23 23 22 21 22 23 21 17 13 9 6 6 6 7 9 11 11 10 10 10 10 10 11 14 14 13 13 13 11 11 11 11 11 12 13 13 13 13 13 13 12 12 12 12 13 13 13 13 14 14 14 14 14 15 15 15 15 16 16 16 16 16 16 15 15 14 14 14 15 16 16
21 22 21 21 20 20 21 22 22 22 22 21 21 21 21 21 22 23 23 24 23 21 17 15 12 9 8 8 9 10 10 10 10 11 11 10 9 10 15 14 14 13 12 10 8 7 7 7 8 10 11 12 12 13 13 13 13 13 13 13 13 13 14 14 14 14 15 15 15 16 16 17 17 18 18 18 18 19 18 18 17 16 15 15 16 17
24 24 23 22 22 22 23 23 23 22 22 21 21 20 19 18 18 19 21 22 23 22 18 16 14 14 12 11 8 6 6 9 11 11 12 9 8 10 14 14 14 13 11 8 5 4 4 4 5 6 7 8 9 10 10 10 11 11 11 11 11 11 12 12 13 13 14 14 15 15 16 16 17 17 18 18 18 19 19 19 19 18 17 16 16 16
28 27 26 25 25 25 25 24 23 22 22 21 21 20 18 16 14 14 16 18 21 21 19 18 17 16 15 10 5 2 3 9 12 12 11 9 8 10 14 13 13 13 12 8 5 3 3 3 5 6 7 7 7 7 7 7 7 7 7 7 7 8 9 9 10 11 11 12 13 13 14 14 15 15 16 16 16 17 17 17 18 17 17 16 16 16
30 29 28 27 27 26 25 24 23 22 21 21 20 19 18 16 14 13 14 15 16 17 18 18 18 17 15 11 6 3 4 11 14 14 12 8 8 10 13 13 13 13 13 10 7 5 3 3 5 7 8 8 8 7 6 6 5 4 4 4 5 5 6 7 8 9 10 10 11 12 12 13 13 13 14 14 14 14 14 15 15 15 16 16 16 15
31 29 28 27 26 25 24 23 22 21 21 20 19 19 17 17 16 15 14 13 12 13 14 16 18 18 15 12 8 6 7 12 15 15 13 9 8 9 12 13 13 13 12 10 8 6 5 4 6 7 8 8 7 6 5 5 4 3 3 4 4 5 6 6 7 8 9 10 10 11 11 12 12 13 13 13 13 13 13 13 13 13 14 15 16 16
30 29 28 26 25 24 23 22 21 20 20 19 18 18 17 16 16 16 15 14 12 11 10 13 16 17 16 13 10 9 10 14 16 15 14 11 8 8 13 14 13 13 12 9 7 6 5 7 7 7 8 8 7 5 4 4 3 3 3 4 4 5 6 6 7 8 9 10 10 11 12 12 13 13 13 13 13 13 13 13 12 12 13 14 15 16
28 28 27 26 25 23 22 21 20 20 19 19 18 17 17 16 16 16 15 15 14 12 11 10 12 13 13 13 12 12 13 15 15 15 13 12 10 10 13 13 13 12 11 9 8 6 5 8 9 9 8 8 6 5 4 4 3 3 3 4 4 5 6 7 8 9 10 10 11 12 12 13 13 14 14 14 14 14 14 14 13 13 13 14 14 15
27 26 26 25 24 24 23 22 21 21 20 19 18 18 17 17 16 16 15 15 14 14 13 12 11 10 9 9 11 13 15 15 15 14 12 11 11 12 12 11 11 11 11 10 9 8 7 8 10 10 9 7 6 5 5 5 4 3 3 4 5 6 7 8 9 9 10 10 11 12 12 13 13 13 14 14 14 14 14 14 14 14 14 14 14 15
25 24 25 25 25 24 24 23 23 22 21 20 19 18 18 17 17 16 15 14 14 14 14 13 12 11 9 8 9 11 13 13 13 12 11 10 10 11 11 11 11 11 10 10 11 10 9 8 8 8 8 6 5 5 6 5 4 3 3 4 4 5 7 8 8 9 9 9 10 10 11 11 11 12 12 13 13 13 13 13 13 13 13 13 14 14
23 22 24 25 25 25 25 24 24 23 22 21 21 20 19 18 17 16 16 15 14 13 13 13 12 12 11 11 11 11 11 12 11 11 10 9 9 9 10 11 11 10 9 9 9 10 10 9 7 6 6 5 6 6 7 6 5 4 3 3 4 4 5 6 7 7 7 8 8 8 9 9 10 10 11 11 11 11 11 12 12 12 12 12 12 13
21 22 23 24 25 25 25 25 25 24 23 22 21 20 20 19 18 17 17 16 15 14 13 13 12 12 12 12 12 11 11 11 10 9 9 8 8 7 7 9 9 9 9 8 8 8 9 9 8 7 6 6 6 7 7 6 5 3 3 2 2 3 4 5 6 6 7 7 7 7 8 8 9 9 10 10 10 10 10 10 10 10 10 11 11 11
22 22 23 24 25 25 26 26 25 25 24 23 22 21 20 20 19 18 17 16 15 14 14 13 13 12 12 12 11 11 10 10 9 8 8 7 7 7 6 7 8 8 8 7 7 7 7 8 8 8 8 7 7 6 5 4 3 2 2 1 0 1 3 4 5 6 6 6 7 7 7 8 8 9 9 10 10 10 10 10 10 10 10 10 10 10
22 22 23 24 25 25 26 25 25 24 24 23 22 22 21 20 20 19 18 16 15 14 13 13 13 12 12 11 11 10 10 9 8 8 7 7 7 6 6 6 6 6 6 7 6 6 6 7 7 7 7 7 7 6 5 3 2 1 1 1 1 2 3 4 5 5 6 7 7 8 8 8 8 9 9 9 10 10 10 11 11 11 11 10 10 10
22 22 23 25 26 26 26 25 25 24 23 23 22 21 20 19 19 18 18 17 15 14 13 12 13 13 13 12 11 10 9 9 8 8 7 7 6 6 6 6 5 5 5 5 6 6 6 6 6 6 6 6 6 5 4 3 1 1 1 2 2 2 2 3 4 5 6 7 7 7 7 7 7 7 8 8 9 10 10 11 11 11 11 11 11 10
21 23 25 27 27 26 26 25 25 24 23 23 22 21 20 18 18 17 17 17 16 14 13 12 12 13 13 13 12 10 9 8 8 7 7 6 6 6 5 5 5 5 4 4 5 5 5 5 5 5 5 5 4 4 3 3 2 1 2 2 2 1 1 1 3 5 5 6 6 7 7 6 6 6 7 7 8 8 9 10 11 11 11 11 11 11
23 26 27 28 27 26 26 26 25 24 24 23 22 21 19 18 17 16 16 16 15 14 13 12 11 12 13 13 12 11 10 9 8 7 7 6 6 5 5 4 4 4 4 4 4 4 4 4 4 4 4 4 3 3 3 2 2 1 2 3 2 1 1 1 2 3 4 5 6 6 6 7 6 6 6 6 7 7 8 8 9 10 10 11 10 10
26 27 28 27 27 27 26 26 25 25 24 23 22 21 20 18 16 15 15 15 15 13 12 11 11 12 14 13 12 11 10 9 8 7 7 6 5 5 4 4 4 3 4 4 3 3 3 4 4 4 3 3 3 2 2 2 2 2 2 2 1 0 0 1 2 3 4 4 5 6 7 7 7 6 6 6 6 6 6 6 7 8 8 9 9 9
26 26 26 26 26 25 25 25 25 25 24 23 22 21 20 18 16 15 14 14 14 13 11 9 10 12 12 12 11 10 9 8 7 7 6 6 5 5 4 4 3 3 3 3 3 3 3 3 3 3 3 3 2 2 2 2 3 3 2 2 2 2 2 2 3 3 4 5 5 6 6 7 7 7 6 6 5 5 5 5 5 6 6 7 8 8
25 25 25 25 25 24 24 25 25 24 23 23 22 21 19 18 16 15 13 12 12 12 11 9 9 10 11 11 11 10 9 8 7 6 5 5 4 4 4 4 3 3 3 3 3 3 3 3 3 3 3 2 2 2 2 2 3 3 4 4 4 5 5 4 4 4 5 5 6 6 7 7 7 7 7 6 5 4 4 4 4 4 5 6 7 7
26 25 25 25 24 23 23 24 24 23 23 23 22 21 19 18 16 15 14 12 11 10 10 9 9 9 10 9 9 9 9 8 7 6 5 4 4 4 4 4 4 4 4 3 3 3 2 2 2 2 2 2 2 2 3 3 3 4 5 6 6 6 5 4 4 4 5 6 6 7 7 8 8 8 8 7 6 4 3 3 4 4 5 5 6 7
26 26 25 25 24 23 23 23 23 23 23 23 22 21 19 18 16 15 14 12 10 9 8 9 9 10 10 10 10 10 9 8 7 6 6 5 5 5 5 5 5 5 5 4 4 3 3 2 2 2 1 1 2 3 4 4 4 5 6 7 6 5 4 4 4 5 6 7 7 7 8 8 8 8 8 8 7 5 3 2 2 3 4 5 5 6
26 26 26 25 23 23 23 23 23 23 23 23 23 22 20 18 17 15 14 12 10 9 8 8 9 10 11 11 11 11 10 9 8 8 7 7 7 6 6 6 6 6 6 5 5 4 4 3 3 2 2 2 3 4 5 6 6 6 7 7 5 4 3 4 5 5 6 7 7 8 8 8 8 8 8 8 8 7 4 2 1 2 4 5 5 6
26 26 26 24 23 23 23 23 23 23 23 23 23 22 21 19 18 16 15 13 11 9 8 7 8 10 11 11 11 11 10 10 9 9 8 8 7 7 7 7 6 7 6 6 5 4 4 3 3 3 3 3 4 5 6 7 7 7 7 6 4 2 3 5 5 6 7 7 8 8 8 7 8 8 8 8 8 9 8 5 3 2 3 4 5 5
Wind_Direction
193 194 195 196 194 192 193 196 195 193 193 193 193 193 194 195 195 196 198 199 200 201 202 203 205 208 212 219 228 238 248 257 263 266 267 266 264 261 258 256 254 250 244 226 204 196 199 199 199 200 205 216 232 241 237 208 170 150 137 125 123 122 116 102 79 54 34 30 42 58 70 80 90 99 104 106 108 113 120 125 124 119 113 111 112 114
189 188 188 190 190 190 191 193 194 193 192 192 192 193 193 192 192 192 193 194 196 198 199 202 205 210 217 227 238 249 258 263 266 265 262 260 257 253 249 245 240 231 213 188 187 199 207 207 203 199 203 215 225 225 213 194 182 178 176 163 145 129 118 98 70 43 21 9 4 16 48 68 80 87 93 95 97 101 106 108 108 107 107 110 113 114
180 180 183 186 188 188 189 190 191 192 192 191 191 192 192 191 190 189 188 189 192 195 198 202 207 214 224 235 245 255 262 264 263 259 255 252 248 245 239 232 222 206 187 178 186 199 205 207 203 199 204 215 217 208 196 191 192 196 200 202 201 200 205 23 30 28 20 16 15 13 7 23 60 76 85 91 95 98 99 100 100 101 105 109 113 115
177 177 181 184 186 189 190 189 189 190 191 191 190 190 191 190 189 187 187 187 189 193 198 203 209 217 228 238 247 254 258 258 255 251 247 244 241 237 230 221 208 193 181 180 188 197 203 204 202 202 208 213 207 194 186 188 195 202 210 218 227 241 261 290 18 49 50 44 42 41 41 36 31 69 82 86 91 94 94 95 96 98 102 107 111 113
177 179 183 183 185 190 192 189 187 188 189 188 188 188 189 190 190 188 187 187 189 193 198 204 210 218 226 234 240 245 247 245 242 240 238 237 234 230 224 215 202 189 182 183 189 198 201 202 202 205 210 209 197 184 182 186 192 198 207 217 230 249 265 267 97 93 88 80 73 67 65 65 69 77 85 85 86 87 89 92 100 109 114 114 111 109
177 181 185 184 188 194 194 188 186 185 185 185 185 186 188 190 190 189 188 188 190 194 198 203 209 215 221 225 229 230 229 228 227 228 230 230 229 225 219 212 200 190 184 183 190 198 201 200 201 205 210 203 189 180 180 184 189 193 198 205 218 238 249 202 124 111 104 99 98 98 94 87 78 73 72 72 81 91 96 98 115 140 148 141 128 115
178 184 187 187 192 197 195 189 185 183 182 181 182 184 186 187 188 188 188 190 192 195 198 202 207 211 215 218 218 216 213 214 216 219 223 225 224 221 216 209 200 192 186 185 190 198 200 198 199 204 206 199 188 183 183 185 187 190 191 194 201 212 214 163 125 112 104 103 110 122 126 120 102 76 61 57 71 92 104 103 117 155 172 168 157 142
177 186 189 190 195 199 196 190 186 184 183 181 179 178 180 182 184 185 186 188 191 194 197 200 204 206 206 206 206 205 206 207 210 213 216 218 217 215 210 205 199 193 188 186 190 197 199 196 198 203 204 199 193 190 188 188 189 191 191 193 196 205 204 137 118 115 113 114 127 143 152 151 133 85 49 42 55 88 112 115 115 140 179 181 178 172
179 184 189 192 195 197 195 192 189 187 185 184 181 178 176 177 180 182 183 185 188 191 194 196 197 198 196 196 198 201 203 205 207 209 210 211 210 208 204 201 197 193 188 185 188 195 199 197 199 204 203 199 196 195 194 194 196 198 199 200 205 216 221 104 115 124 130 136 148 160 166 164 143 74 35 24 29 62 125 146 154 168 197 209 216 222
183 185 188 191 194 195 192 192 192 190 189 188 188 187 184 180 178 178 179 183 187 188 189 191 192 192 193 194 197 200 203 204 204 204 204 204 204 202 199 196 193 190 187 183 185 191 199 200 203 204 202 198 196 196 198 201 204 205 206 208 215 224 226 120 125 137 144 150 157 164 171 175 171 13 7 4 5 13 163 189 193 196 206 222 241 265
181 186 187 190 193 194 193 193 192 191 189 190 192 193 192 188 182 177 174 179 183 185 185 188 191 194 197 200 201 201 202 202 202 200 199 198 197 196 194 191 188 186 184 182 182 187 198 205 207 205 200 197 195 195 199 202 206 207 207 209 215 218 209 161 147 150 153 158 162 166 171 182 216 299 329 340 345 339 253 221 214 211 211 216 228 250
178 184 188 190 191 192 193 193 192 189 187 187 189 191 192 191 188 183 177 177 179 182 183 187 192 196 200 204 206 205 203 203 201 199 195 192 191 190 188 186 183 182 182 182 182 187 198 209 210 205 198 195 193 193 196 199 202 203 202 202 205 205 189 165 156 156 159 163 166 168 173 184 208 265 305 319 318 297 255 236 229 224 223 226 236 251
180 184 187 188 188 189 190 189 188 188 188 189 189 188 187 187 187 186 184 182 181 182 184 187 192 197 201 203 205 206 207 207 203 198 192 188 185 184 182 181 179 180 182 184 185 191 201 211 211 204 195 191 190 190 192 194 196 197 194 192 190 185 173 163 158 159 161 164 168 171 178 192 214 246 278 297 299 286 268 257 251 249 252 259 266 274
177 179 181 183 186 188 188 187 186 189 193 195 194 191 187 184 182 183 184 182 182 184 187 190 194 198 202 204 204 204 206 209 207 201 193 185 180 178 178 177 177 179 182 184 187 194 203 208 205 197 189 186 185 186 186 189 191 191 188 183 178 173 167 163 161 162 163 166 171 178 189 207 225 243 259 271 282 286 284 280 277 276 277 280 283 285
173 173 175 181 186 189 191 190 191 194 197 197 194 190 186 182 181 183 182 178 178 182 187 191 194 198 202 204 204 203 203 206 205 199 190 181 175 173 173 174 175 177 180 181 184 190 198 201 197 189 183 182 182 183 183 185 187 187 184 179 174 170 167 165 164 166 171 177 183 192 202 218 233 246 258 270 280 286 288 287 286 285 285 285 286 288
175 174 177 183 188 192 194 194 195 196 198 195 192 187 183 181 184 186 184 178 177 178 178 177 180 190 201 204 204 201 197 195 195 191 181 171 166 166 167 170 171 172 176 179 181 185 190 192 190 184 180 181 182 182 183 184 185 184 180 177 174 172 171 168 168 171 180 188 197 207 217 229 241 253 264 275 282 287 288 288 287 287 287 287 289 289
180 180 182 185 189 193 196 196 196 196 195 192 190 189 187 186 187 187 185 181 177 175 174 169 163 165 192 201 202 200 193 184 181 179 170 159 155 157 161 168 168 168 173 178 180 182 183 183 183 182 180 181 182 183 183 184 183 181 178 176 175 176 175 172 172 174 182 191 202 213 224 235 247 257 268 276 281 283 285 285 285 286 287 288 289 290
186 187 187 188 190 193 194 195 195 195 193 189 189 190 191 191 190 188 186 182 177 173 174 173 172 169 170 189 196 196 192 181 174 168 161 150 148 153 159 169 171 171 174 176 179 180 179 178 177 178 179 181 182 183 183 183 181 179 177 176 176 178 179 177 175 175 179 185 194 205 218 232 246 258 268 275 279 283 284 285 286 287 289 290 291 292
190 192 192 192 192 193 192 192 193 192 189 187 187 187 188 189 189 188 186 184 180 177 176 178 182 185 184 183 186 186 185 179 173 165 153 144 144 151 160 169 173 174 173 173 175 176 176 174 173 173 174 178 181 182 182 182 181 179 178 177 178 181 182 181 177 176 177 180 186 196 211 229 250 265 276 284 289 293 295 296 297 297 298 299 301 302
194 196 196 196 193 190 189 192 192 191 190 189 187 185 182 184 185 185 186 186 185 184 183 184 188 193 193 185 177 175 175 173 167 158 147 141 143 151 159 168 170 169 167 168 169 170 170 169 168 167 168 173 178 180 182 183 183 182 181 180 181 183 185 185 184 183 184 187 196 209 232 254 270 283 292 299 306 310 313 314 314 314 316 317 318 318
197 199 202 199 194 189 189 192 193 192 192 190 187 184 181 181 181 183 186 188 188 187 188 189 191 192 189 176 168 166 168 166 161 153 144 142 145 151 158 165 167 166 161 161 162 163 164 165 165 164 164 169 175 180 184 186 187 186 184 184 185 188 191 192 194 198 205 217 235 252 264 275 282 289 293 298 303 309 312 313 315 317 319 322 323 323
202 203 205 202 198 194 193 193 192 192 193 192 188 183 182 181 180 183 187 188 188 188 189 189 188 186 179 169 165 166 166 167 165 158 143 136 144 152 159 163 165 163 159 157 158 159 161 164 166 167 167 169 173 178 182 187 190 189 188 188 190 194 198 202 208 216 229 246 262 275 283 288 291 293 294 297 301 304 306 307 308 309 312 314 317 318
208 207 204 201 199 198 197 194 192 192 194 195 194 192 190 188 186 186 188 188 187 187 187 185 182 177 170 165 164 165 167 169 168 160 143 126 141 157 162 164 165 164 162 161 160 161 164 168 171 173 174 174 175 176 178 179 180 183 187 188 191 196 201 210 217 227 239 254 268 280 288 294 295 295 295 296 298 298 299 299 299 301 302 304 306 308
209 206 201 198 197 198 198 194 192 192 194 196 196 196 195 194 193 191 189 187 186 184 180 175 168 162 160 161 162 164 167 170 168 161 144 132 147 159 165 166 166 166 166 167 167 167 169 172 175 179 181 182 183 183 184 185 187 189 191 192 195 198 204 209 215 223 232 241 251 263 271 279 283 285 286 287 288 288 289 289 289 290 292 292 293 295
205 203 198 195 195 196 197 195 193 191 191 191 191 191 191 192 191 189 186 183 180 175 169 158 149 146 153 159 164 165 167 169 170 166 142 129 145 156 163 168 168 167 169 172 174 175 175 177 179 183 186 189 191 193 195 197 199 201 203 205 208 212 215 219 223 227 232 236 240 243 246 250 254 259 264 268 271 274 276 278 279 280 281 281 281 282
200 198 193 190 189 191 193 192 191 188 186 185 184 185 185 185 183 180 176 174 171 165 156 148 146 150 157 162 165 167 166 167 172 170 151 134 140 151 160 167 169 168 168 173 177 181 183 184 186 189 192 195 198 201 204 207 209 212 214 217 220 223 226 229 231 234 237 240 241 243 243 242 242 242 244 248 252 256 261 265 268 271 273 273 272 272
186 184 182 181 181 183 186 186 185 182 180 179 179 179 180 178 174 168 165 167 168 164 157 153 152 154 155 158 163 165 164 164 168 169 162 145 139 145 157 164 167 165 163 166 174 182 187 191 194 197 199 202 205 208 210 213 217 219 222 225 228 230 232 235 237 239 242 244 245 246 247 247 247 247 247 247 248 250 252 255 259 264 267 267 265 264
169 170 170 172 173 175 177 177 176 175 174 174 175 177 178 176 170 165 166 171 171 168 164 161 156 151 150 155 161 163 162 163 164 166 166 154 141 143 157 163 164 160 155 154 163 177 186 192 198 203 207 210 212 214 216 219 221 224 228 231 234 236 237 239 241 244 246 248 250 251 252 253 254 255 255 256 256 257 257 258 259 261 262 261 259 259
158 160 161 162 164 166 167 168 168 168 169 171 173 176 179 180 177 174 175 175 173 170 168 166 161 153 145 148 153 157 162 165 166 168 170 160 146 148 161 163 163 160 154 146 147 159 172 186 196 203 208 213 216 219 221 223 225 227 230 234 237 239 242 244 246 248 250 251 253 254 255 256 257 258 259 260 260 261 261 262 262 262 261 259 257 257
149 150 150 152 155 158 160 161 162 163 167 170 172 175 179 184 187 186 181 178 176 174 171 167 162 153 143 137 135 143 165 176 174 171 171 161 152 157 165 164 164 164 159 148 135 125 131 160 176 186 194 203 209 214 218 221 223 226 229 233 237 241 244 247 249 251 253 255 256 257 258 259 259 260 261 262 262 263 264 264 265 264 262 259 257 256
144 144 144 147 151 154 156 157 158 161 166 170 172 174 176 181 187 191 188 183 182 180 175 170 164 158 150 139 126 126 177 186 181 174 172 164 155 158 165 163 165 168 168 160 148 130 124 137 150 157 162 166 174 183 191 197 204 212 220 227 234 241 246 249 252 254 257 259 260 261 262 262 263 264 265 265 266 266 267 267 266 265 263 260 256 254
143 143 144 148 152 155 157 158 160 163 167 170 171 172 173 174 175 179 183 185 187 187 183 175 168 162 158 151 146 152 173 181 178 175 174 163 153 156 163 161 163 168 171 170 160 145 139 141 146 148 147 146 148 153 160 166 175 190 206 219 230 240 247 251 254 258 260 262 264 264 265 266 267 268 268 269 270 270 270 269 268 267 264 260 257 253
142 143 146 149 153 156 158 160 163 165 167 168 169 170 170 169 166 165 168 174 181 189 190 181 171 164 161 156 147 144 159 169 172 172 172 163 152 154 162 161 161 163 168 169 162 148 134 136 146 152 153 152 151 152 157 166 180 197 213 224 233 242 251 255 257 260 262 265 266 267 269 269 270 271 272 273 273 273 273 272 271 269 266 262 259 256
141 142 145 148 150 153 156 158 160 162 163 164 164 165 165 163 160 159 159 161 164 172 182 186 179 171 166 159 147 140 150 163 168 170 171 165 155 153 161 161 160 162 163 162 157 145 129 134 140 147 155 161 165 168 175 180 195 216 225 231 237 247 255 259 261 262 265 268 270 271 272 274 275 275 276 276 277 277 276 275 274 271 268 265 263 261
139 141 143 145 146 148 150 152 154 155 156 156 157 157 157 156 155 154 154 153 153 153 157 171 178 179 179 172 161 152 153 159 164 168 170 167 159 154 159 161 163 165 164 162 157 147 131 138 144 146 150 157 167 179 190 194 202 221 236 242 250 259 264 268 269 270 271 272 274 275 276 277 278 278 279 279 279 278 278 277 275 273 271 269 267 265
136 138 141 142 143 143 144 146 147 148 148 149 149 150 150 149 149 149 149 149 148 148 149 154 161 169 178 184 176 163 155 156 160 164 167 169 165 161 158 162 168 171 170 168 164 156 144 146 152 156 155 153 160 174 188 198 206 222 247 264 272 276 278 279 279 279 279 279 279 278 279 279 279 280 279 280 279 279 279 278 276 274 272 271 269 268
136 137 139 141 142 142 142 143 144 144 143 143 143 143 144 143 142 142 143 144 145 146 147 150 152 153 153 155 156 154 151 153 157 161 164 167 170 170 167 165 170 176 177 174 170 165 157 149 152 159 163 162 162 168 179 189 197 213 247 276 286 289 289 289 288 287 287 285 285 284 284 283 283 282 282 283 283 282 282 281 280 278 275 273 271 269
137 138 140 142 143 142 142 142 142 141 141 140 139 139 139 138 136 136 136 138 140 142 144 145 145 144 142 141 142 145 148 150 154 158 162 164 170 175 174 168 168 172 177 176 173 170 165 153 148 155 165 172 173 173 178 186 196 212 238 266 281 289 293 295 295 295 293 292 292 292 292 293 292 291 290 290 289 288 287 287 285 283 281 278 275 273
139 140 142 143 144 143 142 142 141 141 140 139 138 137 136 134 133 132 132 132 134 136 138 139 138 137 137 138 140 142 145 148 152 156 159 160 164 170 173 168 165 166 168 169 169 168 167 161 157 158 162 164 169 176 183 192 203 214 224 238 259 281 293 295 297 298 297 297 298 299 300 301 300 299 297 295 293 291 288 286 286 285 284 283 281 279
142 142 144 145 145 145 144 143 142 141 139 138 137 136 135 133 131 130 130 130 130 131 132 134 135 135 135 136 137 140 144 148 151 154 156 157 158 162 165 164 162 160 160 160 161 161 161 161 160 161 162 161 165 173 178 183 195 212 221 227 255 299 305 299 298 299 301 302 304 304 303 301 299 297 295 293 291 288 285 284 283 283 284 285 286 287
143 143 144 146 147 146 145 143 141 140 139 138 136 135 135 133 132 130 130 130 129 130 132 134 135 135 135 136 138 141 145 148 152 154 156 156 156 157 158 159 156 154 154 154 153 152 152 152 153 155 158 162 165 167 169 167 173 211 274 315 330 321 309 301 300 303 306 310 311 311 310 306 301 297 292 289 286 284 284 282 281 282 283 285 287 290
143 144 146 147 147 145 143 141 140 140 139 138 137 136 136 136 135 134 133 131 130 131 133 136 136 135 134 135 139 143 148 151 154 156 158 158 158 156 156 154 152 150 150 150 148 146 144 146 147 151 154 157 160 161 159 157 167 241 289 304 316 320 311 304 305 311 319 321 322 323 322 319 314 307 299 292 286 282 281 280 279 279 280 282 284 286
144 146 147 147 146 144 142 141 141 140 140 139 138 137 138 138 138 137 135 132 131 131 134 136 138 138 135 135 138 144 150 155 158 160 161 161 160 158 156 153 150 148 149 149 148 146 143 144 148 152 155 156 157 155 149 153 167 238 278 297 312 334 89 346 323 324 330 334 337 340 342 339 335 328 319 309 298 290 284 280 278 277 276 277 278 281
145 147 147 146 145 144 143 143 143 143 143 141 140 139 140 140 140 139 136 133 131 132 134 137 140 140 137 136 138 143 150 157 163 166 166 165 164 162 161 159 156 154 154 155 153 151 150 152 157 162 164 164 162 158 152 152 164 204 259 291 301 304 120 12 340 341 348 351 353 354 355 353 350 346 340 331 321 309 298 289 283 279 277 276 276 277
145 145 146 146 146 146 146 146 147 147 146 144 143 143 143 143 143 142 138 134 133 133 136 140 143 140 135 138 142 146 150 157 164 170 173 173 172 171 170 169 168 166 166 166 166 164 163 164 167 172 178 177 175 169 164 164 173 191 229 272 291 306 65 348 359 9 12 6 1 358 358 357 356 354 352 348 340 327 314 302 292 284 280 278 277 275
144 144 146 148 149 149 149 150 150 149 149 148 147 147 147 147 147 145 142 138 136 136 137 143 146 145 142 147 151 153 154 156 162 169 175 178 180 180 180 180 179 179 179 177 178 178 176 175 178 184 192 192 190 185 181 182 181 184 191 188 150 125 102 73 48 32 18 8 1 357 354 353 352 352 354 358 357 344 325 313 303 292 283 279 275 273
145 147 149 151 152 153 154 154 153 152 152 151 152 152 152 151 151 149 146 143 140 138 138 143 151 155 155 158 162 162 157 156 160 167 174 176 177 178 179 179 179 180 181 181 181 180 179 179 185 194 200 201 199 192 188 194 186 175 165 156 144 130 111 86 58 33 17 7 0 355 351 349 349 350 353 360 6 3 341 325 315 304 290 279 274 270
150 151 153 154 155 156 157 158 157 157 156 156 156 156 156 157 156 155 152 149 145 141 139 143 150 156 159 163 167 167 163 159 158 161 165 164 162 159 157 159 161 163 166 168 171 172 172 174 182 196 204 206 190 172 164 179 177 165 156 151 143 130 107 77 48 28 17 10 2 356 352 351 350 349 348 351 0 11 12 339 321 310 299 287 279 275
155 156 157 158 158 159 161 162 162 161 160 160 160 160 161 162 163 162 158 155 151 145 140 142 145 149 152 154 156 158 158 156 154 151 148 145 141 139 140 143 145 148 148 150 151 152 155 155 159 171 187 185 174 165 160 168 167 158 152 149 142 125 93 60 35 22 16 12 6 1 357 354 351 347 346 344 347 355 16 1 324 310 304 299 293 286
159 160 161 161 161 163 164 165 165 165 164 164 164 164 165 166 167 167 165 161 155 148 143 143 145 147 149 150 150 150 148 145 141 137 135 134 134 136 139 140 143 144 144 142 142 144 145 141 136 132 137 142 154 158 157 156 156 154 149 146 139 115 68 39 22 14 12 10 8 4 1 357 352 349 346 343 341 341 345 355 349 310 304 305 304 299
162 163 164 164 165 166 167 168 168 168 168 167 167 167 167 168 169 170 168 165 159 153 147 146 148 149 149 151 151 149 145 140 136 134 132 129 130 133 136 140 143 145 143 140 138 137 131 119 110 106 111 126 137 145 146 145 146 147 145 141 130 83 34 19 11 6 6 6 4 1 359 357 354 352 349 346 344 341 339 340 344 337 313 308 304 300
Height
780 781 783 786 788 790 792 793 793 794 794 794 794 795 796 796 796 797 798 800 801 803 804 806 806 807 808 809 809 810 810 810 810 810 810 809 809 809 809 809 809 810 811 812 813 813 813 813 813 813 814 814 815 815 816 816 816 816 817 817 816 816 816 816 816 816 816 816 816 817 816 816 816 816 816 816 816 816 816 816 817 817 818 818 818 819
780 781 783 786 788 790 791 792 793 793 793 793 793 793 794 794 795 795 796 797 799 801 802 804 805 806 807 807 808 808 808 808 808 808 808 808 807 807 807 807 808 809 810 811 812 813 812 812 812 813 813 814 814 815 815 815 815 816 816 816 815 815 816 816 816 816 816 816 816 817 817 817 817 817 817 817 817 817 817 818 818 818 818 819 819 819
780 781 783 785 788 790 791 792 792 792 793 793 793 793 794 794 794 793 793 794 796 798 801 802 803 804 805 806 806 806 806 806 807 807 807 806 806 806 806 806 807 808 809 811 811 812 812 812 812 812 812 813 813 814 814 814 815 815 815 815 815 815 815 815 816 816 816 816 816 816 817 818 818 818 818 818 818 818 818 818 819 819 819 819 820 820
779 781 783 785 787 789 791 791 791 792 792 792 793 794 794 794 794 793 793 793 794 796 798 800 801 802 803 804 804 804 805 805 806 806 806 805 805 805 805 805 806 807 808 810 811 811 811 811 811 811 812 812 813 813 813 814 814 814 814 815 815 815 815 815 815 815 815 815 816 816 816 817 818 818 819 819 819 819 819 819 819 819 820 820 820 820
779 781 783 786 788 790 791 791 791 791 791 792 793 793 794 795 794 794 793 793 793 795 796 798 799 800 801 802 802 803 803 804 804 804 804 804 804 803 803 804 805 806 807 809 810 810 810 811 811 811 811 812 812 812 813 813 814 814 814 814 814 814 814 815 815 815 815 815 816 816 816 817 817 818 819 819 819 819 820 820 820 820 820 820 820 820
779 781 783 786 789 791 791 791 791 791 791 791 792 792 793 794 794 793 793 793 793 794 795 796 797 798 799 800 800 801 802 802 803 803 803 803 803 802 802 803 803 805 806 808 809 810 810 810 810 810 811 811 811 812 812 813 813 813 814 814 814 814 814 814 814 814 815 815 816 816 816 816 817 818 818 819 820 820 820 820 820 820 820 820 820 820
778 781 783 786 789 790 791 792 791 791 790 790 790 791 792 793 793 793 792 792 792 793 794 795 796 796 797 798 799 800 800 801 801 801 802 802 801 801 801 801 802 803 805 806 808 809 809 809 809 810 810 811 811 812 812 813 813 813 813 813 814 814 814 814 814 814 814 815 815 816 816 816 817 818 818 819 820 820 820 820 820 820 820 820 820 820
776 780 783 786 788 790 791 792 791 791 790 789 789 790 791 791 792 792 792 791 792 792 792 793 794 795 796 797 798 799 799 800 800 800 800 800 800 800 800 800 801 802 803 805 807 808 808 808 809 809 810 810 811 811 812 812 812 813 813 813 813 813 813 813 813 814 814 814 815 815 816 816 817 817 818 819 819 820 820 820 820 820 820 820 819 819
775 779 782 785 787 789 791 791 791 791 790 789 789 789 789 790 790 791 791 791 791 791 791 792 793 794 795 796 797 797 798 798 799 799 799 799 799 799 799 799 799 801 802 804 806 807 807 808 808 809 809 810 810 811 811 812 812 812 813 813 813 813 813 813 813 813 814 814 815 815 816 816 816 817 818 818 819 819 820 820 820 820 819 819 819 819
773 777 781 783 785 787 788 789 790 790 790 790 789 788 788 788 789 790 790 790 790 790 791 791 792 793 794 795 796 796 797 797 797 798 798 798 798 798 798 798 798 799 801 803 805 806 807 807 808 808 808 809 810 810 811 811 812 812 812 812 812 813 813 813 813 813 814 814 814 815 815 816 816 817 817 818 819 819 819 819 819 819 819 819 819 819
774 776 779 782 783 784 786 786 787 788 789 789 789 789 788 788 788 788 789 789 789 790 790 791 791 792 793 794 795 796 796 796 796 796 796 796 796 796 797 797 797 798 800 801 803 805 806 806 807 807 808 808 809 810 811 811 811 812 812 812 812 812 813 813 813 813 813 814 814 814 815 815 816 816 817 818 818 819 819 819 819 819 819 819 819 819
773 776 779 780 781 782 783 784 786 787 788 788 788 788 788 787 787 787 788 788 788 789 789 790 791 791 793 794 794 795 795 796 796 796 796 796 796 796 796 796 796 797 798 801 802 804 805 806 806 806 807 808 808 809 810 810 811 811 811 812 812 812 812 812 813 813 813 813 814 814 815 815 816 816 816 817 818 818 819 819 819 819 819 819 819 819
771 775 777 779 780 780 781 783 785 786 786 786 786 785 785 786 786 787 787 788 788 788 789 790 790 791 792 793 794 794 795 795 795 795 795 795 795 795 795 795 795 796 797 799 801 803 804 805 805 806 806 807 808 808 809 810 810 811 811 811 811 812 812 812 812 813 813 813 814 814 814 815 815 816 816 817 817 818 818 818 819 819 818 818 818 818
769 772 775 777 778 779 780 781 783 784 784 783 782 781 781 783 785 786 787 787 788 788 789 789 790 791 792 792 793 794 794 794 794 794 794 794 794 794 794 794 794 795 796 798 800 802 803 804 804 805 806 806 807 808 808 809 810 810 811 811 811 811 812 812 812 813 813 813 814 814 814 815 815 815 816 816 817 817 818 818 818 818 818 818 818 818
766 769 772 775 776 776 777 778 780 780 780 779 779 780 781 782 783 784 785 786 787 788 789 789 790 791 791 792 793 793 794 794 794 793 793 793 793 793 793 793 794 794 796 797 799 801 802 803 803 804 805 806 806 807 808 808 809 810 810 811 811 811 811 812 812 812 813 813 813 813 814 814 814 815 815 816 816 816 817 817 817 817 817 817 817 817
763 765 768 770 771 773 774 775 776 777 777 777 778 778 780 780 781 782 783 784 785 786 787 788 790 791 791 791 792 793 793 793 793 792 792 792 792 792 793 793 793 794 795 797 798 800 801 802 802 803 804 805 806 806 807 808 809 809 810 810 811 811 811 811 812 812 812 813 813 813 813 813 814 814 815 815 816 816 816 816 817 817 816 816 816 816
761 762 763 765 767 769 770 771 773 774 775 775 776 776 776 777 778 779 780 781 783 784 786 787 788 790 791 791 791 792 792 792 792 792 791 791 791 792 792 793 793 794 795 797 798 799 801 801 802 803 804 805 805 806 807 807 808 809 809 810 810 811 811 811 811 812 812 812 813 813 813 813 814 814 814 815 815 816 816 816 816 816 816 816 816 816
760 760 761 762 763 765 767 769 771 771 772 773 774 775 775 775 776 777 778 779 781 782 784 785 786 788 789 790 790 791 791 791 791 791 791 791 791 792 792 793 793 794 795 796 798 799 800 801 802 803 803 804 805 806 806 807 808 808 809 809 809 810 811 811 811 811 812 812 812 813 813 813 813 814 814 814 815 815 816 816 816 816 816 816 815 815
757 758 758 759 760 762 764 766 767 768 770 771 771 773 774 775 776 776 777 778 779 780 782 784 785 786 787 787 788 789 790 790 790 790 790 790 791 792 792 793 793 794 795 796 798 799 800 801 801 802 803 804 805 805 806 807 808 808 808 809 809 809 810 811 811 811 811 812 812 812 812 813 813 813 814 814 814 815 815 815 815 815 815 815 815 815
753 755 755 756 758 760 761 763 763 764 766 767 769 770 772 773 775 776 776 777 778 780 781 783 784 785 786 786 787 787 788 789 789 789 789 790 791 791 792 793 794 794 795 796 797 799 800 800 801 802 803 804 804 805 806 807 807 808 808 808 808 809 810 810 811 811 811 811 812 812 812 812 812 813 813 814 814 814 815 815 815 815 815 815 815 814
750 751 751 753 755 757 758 759 760 761 763 765 767 769 770 771 773 775 776 777 778 779 781 782 783 784 785 786 786 787 787 788 788 788 788 789 791 791 792 793 794 795 795 796 797 798 799 800 801 801 803 804 804 805 806 806 807 808 808 808 808 809 809 810 810 811 811 811 811 811 812 812 812 812 813 813 813 814 814 814 814 814 814 814 814 814
746 747 748 750 751 753 754 756 757 760 761 764 766 767 768 770 771 773 774 776 777 779 780 782 783 784 785 785 786 786 787 787 787 787 787 789 790 791 792 793 794 795 796 796 797 798 799 800 800 801 802 803 804 805 806 806 807 807 807 808 808 808 809 810 810 810 811 811 811 811 811 811 811 811 812 812 813 813 813 814 814 814 814 814 813 813
742 744 746 748 749 751 752 754 756 758 761 762 764 765 766 768 770 771 773 774 776 777 779 781 782 783 784 785 785 786 786 786 786 786 787 788 790 791 792 793 794 795 796 796 797 798 799 799 800 801 801 802 803 804 805 806 806 807 807 807 808 808 809 809 809 810 810 810 810 810 810 810 811 811 811 811 812 812 812 813 813 813 813 813 813 812
740 742 744 746 748 750 751 753 755 757 759 761 763 765 766 768 769 771 772 773 775 776 778 780 782 783 784 785 785 786 786 786 786 786 786 787 789 790 791 792 793 794 795 796 797 798 799 799 800 801 801 802 803 804 804 805 806 806 806 806 807 808 808 808 809 809 809 809 810 810 810 810 810 810 810 811 811 811 811 812 812 812 812 812 812 811
739 741 742 745 747 749 751 753 754 756 758 760 762 764 766 768 770 771 772 773 775 776 778 780 781 783 784 784 785 785 785 785 785 785 785 786 788 790 791 792 793 794 795 796 797 797 798 799 800 801 801 802 803 803 804 804 805 805 806 806 806 807 807 807 808 808 808 808 809 809 809 809 810 810 810 810 810 810 811 811 811 811 811 811 811 811
739 741 742 745 747 749 751 753 754 755 757 758 760 762 764 766 768 770 771 773 774 776 777 779 781 782 782 783 783 784 784 784 784 784 784 785 787 789 790 791 792 793 794 795 796 797 798 799 799 800 801 801 802 803 803 804 804 805 805 805 806 806 806 807 807 807 807 807 808 808 808 808 809 809 809 809 810 810 810 810 810 810 810 810 810 810
739 741 743 745 747 749 751 753 754 755 756 758 759 761 763 765 767 769 770 771 772 774 776 777 779 781 781 782 782 782 782 783 783 783 783 784 786 788 790 791 791 792 793 795 796 796 797 798 799 800 800 801 801 802 802 803 803 804 804 805 805 805 806 806 806 806 806 806 807 807 807 807 807 808 808 808 809 809 809 809 809 809 809 809 808 808
739 741 743 745 747 749 751 752 753 755 756 758 759 761 762 763 765 766 768 769 771 772 774 775 777 779 780 781 781 781 781 782 782 783 783 784 786 787 789 790 791 792 793 794 795 796 797 797 798 799 799 800 800 801 801 802 802 803 803 804 804 804 804 805 805 805 805 805 806 806 806 806 806 807 807 807 807 808 808 808 808 808 808 808 807 807
739 741 743 745 746 748 750 751 753 755 756 758 759 761 762 763 763 764 765 767 769 771 772 773 774 776 777 779 780 781 781 781 781 782 783 784 785 787 788 789 790 791 792 793 795 796 796 797 797 798 798 799 799 800 800 801 801 802 802 802 802 803 803 803 804 804 804 804 804 804 805 805 805 806 806 806 806 806 807 807 807 807 807 807 806 806
739 741 742 744 746 748 750 751 753 754 756 757 759 760 762 763 763 764 765 766 768 769 771 772 773 774 775 777 779 781 781 781 781 782 783 784 785 786 787 789 790 790 791 792 794 796 797 797 797 797 797 798 798 799 799 800 800 801 801 801 801 801 802 802 802 802 802 802 803 803 803 804 804 804 804 805 805 805 805 806 806 806 806 806 805 805
737 739 741 743 745 747 749 750 752 754 755 757 758 760 761 762 764 765 765 766 767 768 769 770 771 772 774 776 778 780 780 780 781 781 782 783 784 786 787 788 789 789 790 791 792 794 796 797 797 797 797 797 798 798 798 799 799 800 800 800 800 800 801 801 801 801 801 801 801 802 802 802 802 803 803 803 803 804 804 804 804 804 804 804 804 804
735 737 739 741 744 746 748 750 751 753 755 756 758 759 761 762 763 764 765 766 767 767 768 769 770 771 772 773 775 777 778 779 780 781 782 783 784 785 786 787 788 789 789 790 790 791 793 796 797 797 797 797 797 797 798 798 799 799 799 799 799 799 800 800 800 800 800 800 800 801 801 801 801 801 802 802 802 802 803 803 803 803 803 803 803 803
734 736 739 741 744 746 748 750 751 753 755 756 758 759 760 761 762 763 764 766 766 767 768 768 769 771 771 772 773 775 776 778 779 780 781 782 783 784 785 786 787 788 789 789 790 790 791 793 795 796 796 797 797 797 797 798 798 798 798 798 799 799 799 799 799 799 799 799 799 800 800 800 801 801 801 801 801 801 801 801 802 802 802 802 802 802
734 737 740 742 744 746 748 750 752 754 755 756 758 759 760 761 761 763 764 765 766 767 767 768 769 770 771 772 773 775 776 777 778 780 781 781 782 783 785 785 786 787 788 788 789 790 791 791 793 794 796 796 796 796 797 797 797 797 798 798 798 798 798 798 798 798 798 798 799 799 799 799 800 800 800 800 800 800 800 801 801 801 801 801 801 801
735 738 740 742 744 746 748 750 752 754 755 756 758 759 760 761 761 762 763 764 765 766 767 768 769 770 771 771 772 774 776 777 778 779 781 781 782 783 784 785 785 786 787 787 788 789 790 791 792 793 794 795 796 796 796 796 796 797 797 797 797 797 797 797 797 797 797 798 798 798 798 799 799 799 799 799 799 799 799 799 799 800 799 799 799 799
736 739 741 743 744 746 748 750 752 754 755 756 757 758 759 760 761 762 763 764 765 766 767 768 769 770 771 772 773 773 775 776 778 779 780 781 781 782 783 784 785 786 786 787 787 788 789 791 791 792 793 794 795 795 796 796 796 796 796 796 796 796 796 796 796 796 797 797 797 797 797 798 798 798 798 798 798 798 798 798 798 798 798 798 798 798
737 739 741 743 744 746 748 750 752 753 755 756 757 758 759 760 761 762 763 764 765 766 767 768 769 770 771 773 774 774 775 777 778 779 780 781 782 782 782 783 784 785 786 786 786 787 788 789 791 791 792 793 793 794 794 795 795 795 796 795 795 796 795 795 796 796 796 796 796 796 796 796 796 796 796 796 796 796 796 796 796 796 796 797 796 796
738 740 741 743 744 746 748 750 751 753 754 755 756 758 759 760 761 761 763 764 765 766 767 768 770 771 772 773 774 775 776 777 778 779 780 781 781 782 782 783 784 785 785 786 786 787 787 788 790 791 791 791 792 792 793 794 794 795 795 795 795 795 795 795 795 795 795 795 795 796 796 796 796 796 796 795 795 795 795 795 795 795 795 795 795 795
738 740 741 743 745 746 747 749 751 752 753 755 756 757 758 759 760 761 763 764 766 767 768 769 770 771 772 773 774 775 776 777 778 779 780 781 781 782 782 783 783 784 785 785 786 786 786 787 788 789 790 790 791 791 792 793 793 794 794 794 794 794 794 794 794 794 794 794 795 795 795 795 795 795 794 794 794 794 794 794 794 794 794 794 794 794
738 740 741 743 745 746 747 748 750 751 753 754 756 757 758 759 761 762 763 765 766 767 768 769 770 771 772 773 774 776 776 777 778 779 780 781 781 782 782 783 783 783 784 784 785 785 786 786 787 787 788 789 790 791 791 792 792 793 793 794 794 794 794 794 794 794 794 794 794 794 794 794 794 794 793 793 793 793 793 793 793 793 793 793 793 793
738 740 741 743 745 746 747 748 750 751 752 754 755 757 758 759 761 762 764 765 766 767 769 770 771 771 773 774 775 776 777 778 779 779 780 781 781 781 782 782 783 783 783 784 784 785 785 786 786 787 787 788 789 790 791 791 792 792 792 793 793 793 793 793 793 793 793 793 793 793 793 793 793 793 792 792 792 792 792 792 792 792 792 792 792 792
737 739 741 743 744 746 747 748 750 751 752 754 755 756 758 759 761 762 764 765 766 768 769 770 771 772 773 774 775 776 777 778 779 779 780 780 781 781 781 782 782 782 783 783 784 784 785 785 786 786 787 788 788 789 790 791 791 791 792 792 792 793 793 792 792 792 792 792 792 792 792 792 792 792 792 791 791 791 791 791 791 791 791 791 791 791
737 739 741 742 744 745 747 748 750 751 752 754 755 757 758 760 761 762 764 765 766 768 769 770 771 772 773 774 776 776 777 778 779 779 780 780 780 781 781 781 781 782 782 783 783 784 784 785 785 786 786 787 788 789 789 790 791 791 791 791 791 792 792 792 792 792 792 791 791 791 791 791 791 791 791 791 791 790 790 790 790 790 790 790 790 790
737 739 741 742 744 745 747 748 750 751 752 754 756 757 759 760 762 763 764 765 766 768 769 770 771 772 773 774 776 777 777 778 779 779 779 780 780 780 780 781 781 781 782 782 783 783 784 784 785 785 786 787 787 788 789 790 790 790 791 791 791 791 791 791 791 791 791 791 791 791 791 791 791 791 791 790 790 790 789 789 789 789 789 789 789 789
736 739 741 742 744 746 747 748 750 751 753 754 756 757 759 761 762 763 764 765 766 767 769 769 771 772 773 775 776 777 777 778 778 779 779 779 779 779 780 780 780 781 781 782 782 783 783 784 784 785 786 786 787 788 788 789 789 790 790 790 790 791 791 791 791 791 791 791 791 791 791 791 791 791 790 790 790 789 789 788 788 788 788 788 788 788
736 739 741 742 744 746 747 749 750 752 753 755 756 758 759 761 762 763 764 765 766 767 768 769 770 771 773 774 776 776 777 778 778 778 778 778 779 779 779 779 780 780 781 781 782 782 783 784 784 785 785 786 786 787 788 788 789 789 789 790 790 790 791 791 791 791 791 791 791 791 791 791 790 790 790 790 789 789 788 788 787 787 787 787 787 787
736 738 740 742 744 746 748 749 751 752 754 755 757 758 759 761 762 763 764 765 766 767 768 769 770 771 772 774 775 776 777 777 778 778 778 778 778 778 778 779 779 780 781 781 781 782 783 783 784 785 785 786 786 787 787 788 788 789 789 789 790 790 790 791 791 791 791 791 791 791 790 790 790 790 790 789 789 789 788 787 787 787 787 786 786 786
735 737 740 742 744 746 748 750 751 753 754 756 757 758 759 761 761 762 763 765 766 766 767 769 770 771 772 773 774 775 776 776 777 777 777 777 778 778 778 778 779 779 780 781 781 782 782 783 784 784 785 785 786 786 787 787 788 788 789 789 790 790 790 791 791 791 791 791 791 790 790 790 790 789 789 789 789 788 788 787 787 786 786 786 786 786
735 737 739 742 744 746 748 750 751 753 754 755 757 758 759 761 761 762 763 764 765 766 767 768 770 771 772 773 774 775 775 776 776 776 777 777 777 777 778 778 779 779 780 781 781 781 782 783 783 784 784 785 786 786 786 787 787 788 788 789 789 790 790 790 791 791 791 790 790 790 790 790 789 789 789 788 788 788 788 787 786 786 786 786 785 785
735 737 739 741 743 746 747 749 751 752 754 755 756 757 759 760 761 762 763 764 765 766 767 768 769 770 771 772 773 774 775 775 776 776 776 777 777 777 778 778 779 779 780 781 781 781 782 783 783 784 784 785 785 786 786 786 787 788 788 789 789 790 790 790 790 790 790 790 790 790 789 789 789 789 788 788 788 787 787 787 786 786 786 785 785 785
735 736 738 741 743 745 747 748 750 752 753 754 756 757 758 760 761 762 763 764 765 766 767 768 769 770 771 772 773 774 774 775 775 776 776 777 777 777 778 778 779 779 780 781 781 781 782 783 783 784 785 785 785 786 786 786 787 788 788 789 789 789 790 790 790 790 790 790 790 789 789 789 789 788 788 788 787 787 786 786 786 786 785 785 785 784